Weather reports worldwide

Advertisment
Cagliari/Elmas, Italy (16560): temperature & dewpoint: 12.08.2019 03:00:00 - 18.08.2019 03:00:00 (CEST)Cagliari/Elmas, Italy (16560): wind speed: 12.08.2019 03:00:00 - 18.08.2019 03:00:00 (CEST)Cagliari/Elmas, Italy (16560): wind direction: 12.08.2019 03:00:00 - 18.08.2019 03:00:00 (CEST)Cagliari/Elmas, Italy (16560): reduced air pressure: 12.08.2019 03:00:00 - 18.08.2019 03:00:00 (CEST)Cagliari/Elmas, Italy (16560): visibility: 12.08.2019 03:00:00 - 18.08.2019 03:00:00 (CEST)Cagliari/Elmas, Italy (16560): precipitation: 12.08.2019 03:00:00 - 18.08.2019 03:00:00 (CEST)
Date & Time tt [°C] td [°C] ff [km/h] ff [kn] dd ppp [hPa] vv [km] rr [mm]
18.08.2019 03:00:00 23,0 22,0 4 2 - - 10 -
18.08.2019 02:00:00 22,7 21,2 4 2 ESE 1016,4 10 -
18.08.2019 01:00:00 23,0 22,0 4 2 ENE - 10 -
18.08.2019 00:00:00 24,0 22,0 5 3 S - 10 -
17.08.2019 23:00:00 23,9 22,0 5 3 S 1016,7 10 0,0
17.08.2019 22:00:00 - - - - - - - -
17.08.2019 21:00:00 25,0 22,0 11 6 SE - 10 -
17.08.2019 20:00:00 25,4 21,5 13 7 SSE 1015,9 10 -
17.08.2019 19:00:00 26,0 21,0 16 9 SSE - 10 -
17.08.2019 18:00:00 28,0 21,0 18 10 SE - 10 -
17.08.2019 17:00:00 27,9 20,1 16 9 SSE 1016,1 10 0,0
17.08.2019 16:00:00 29,0 21,0 22 12 SSE - 10 -
17.08.2019 15:00:00 29,0 20,0 18 10 SSE - 10 -
17.08.2019 14:00:00 29,3 18,1 15 8 SSE 1017,0 10 -
17.08.2019 13:00:00 - - - - - - - -
17.08.2019 12:00:00 30,0 9,0 9 5 WSW - 10 -
17.08.2019 11:00:00 28,7 7,7 13 7 NNW 1018,0 10 0,0
17.08.2019 10:00:00 24,0 16,0 15 8 WNW - 10 -
17.08.2019 09:00:00 21,0 16,0 11 6 NW - 10 -
17.08.2019 08:00:00 19,3 16,1 11 6 NNW 1016,9 10 -
17.08.2019 07:00:00 18,0 16,0 11 6 NW - 10 -
17.08.2019 06:00:00 19,0 17,0 13 7 NW - 10 -
17.08.2019 05:00:00 18,3 16,5 11 6 NW 1016,6 10 0,0
17.08.2019 04:00:00 20,0 17,0 9 5 NW - 10 -
17.08.2019 03:00:00 20,0 17,0 15 8 N - 10 -
17.08.2019 02:00:00 21,5 16,7 18 10 N 1017,4 10 -
17.08.2019 01:00:00 22,0 17,0 18 10 N - 10 -
17.08.2019 00:00:00 22,0 17,0 16 9 NNW - 10 -
16.08.2019 23:00:00 22,6 16,8 15 8 NNW 1017,4 10 0,0
16.08.2019 22:00:00 24,0 17,0 18 10 N - 10 -
16.08.2019 21:00:00 25,0 17,0 22 12 NNW - 10 -
16.08.2019 20:00:00 26,3 15,6 29 16 NNW 1015,6 10 -
16.08.2019 19:00:00 28,0 14,0 31 17 NNW - 10 -
16.08.2019 18:00:00 30,0 13,0 31 17 N - 10 -
16.08.2019 17:00:00 30,7 12,5 34 18 NNW 1015,3 10 0,0
16.08.2019 16:00:00 32,0 12,0 34 18 N - 10 -
16.08.2019 15:00:00 32,0 12,0 28 15 NNW - 10 -
16.08.2019 14:00:00 32,0 12,0 31 17 N 1016,2 10 -
16.08.2019 13:00:00 31,0 13,0 28 15 NNW - 10 -
16.08.2019 12:00:00 31,0 14,0 22 12 NNW - 10 -
16.08.2019 11:00:00 29,4 15,1 16 9 WNW 1017,1 10 0,0
16.08.2019 10:00:00 27,0 18,0 16 9 NW - 10 -
16.08.2019 09:00:00 25,0 19,0 13 7 NW - 10 -
16.08.2019 08:00:00 22,5 18,3 13 7 N 1016,9 10 -
16.08.2019 07:00:00 21,0 17,0 9 5 NNW - 10 -
16.08.2019 06:00:00 21,0 18,0 13 7 NNW - 10 -
16.08.2019 05:00:00 22,2 18,3 18 10 N 1016,3 10 0,0
16.08.2019 04:00:00 22,0 19,0 15 8 NNW - 10 -
16.08.2019 03:00:00 23,0 19,0 15 8 N - 10 -
16.08.2019 02:00:00 22,9 18,6 15 8 N 1017,6 10 -
16.08.2019 01:00:00 23,0 18,0 16 9 NNW - 10 -
16.08.2019 00:00:00 24,0 17,0 15 8 N - 10 -
15.08.2019 23:00:00 24,2 14,6 15 8 NNW 1017,7 10 0,0
15.08.2019 22:00:00 26,0 12,0 18 10 NNW - 10 -
15.08.2019 21:00:00 26,0 16,0 18 10 NNW - 10 -
15.08.2019 20:00:00 28,1 12,3 24 13 NNW 1015,8 10 -
15.08.2019 19:00:00 31,0 11,0 29 16 NNW - 10 -
15.08.2019 18:00:00 32,0 9,0 24 13 NW - 10 -
15.08.2019 17:00:00 32,0 10,3 28 15 NNW 1015,2 10 0,0
15.08.2019 16:00:00 33,0 10,0 22 12 NNW - 10 -
15.08.2019 15:00:00 33,0 9,0 22 12 N - 10 -
15.08.2019 14:00:00 31,9 9,4 21 11 NNW 1016,0 10 -
15.08.2019 13:00:00 31,0 11,0 16 9 NW - 10 -
15.08.2019 12:00:00 30,0 13,0 18 10 NNW - 10 -
15.08.2019 11:00:00 28,2 13,2 26 14 NNW 1017,1 10 0,0
15.08.2019 10:00:00 25,0 16,0 22 12 NNW - 10 -
15.08.2019 09:00:00 23,0 16,0 22 12 NNW - 10 -
15.08.2019 08:00:00 21,5 15,7 18 10 N 1016,9 10 -
15.08.2019 07:00:00 20,0 16,0 18 10 N - 10 -
15.08.2019 06:00:00 19,0 16,0 16 9 NNW - 10 -
15.08.2019 05:00:00 20,1 16,6 18 10 N 1016,5 10 0,0
15.08.2019 04:00:00 21,0 17,0 16 9 N - 10 -
15.08.2019 03:00:00 21,0 17,0 18 10 N - 10 -
15.08.2019 02:00:00 22,2 17,6 21 11 NNW 1017,0 10 -
15.08.2019 01:00:00 23,0 17,0 24 13 NNW - 10 -
15.08.2019 00:00:00 23,0 17,0 21 11 NNW - 10 -
14.08.2019 23:00:00 23,1 16,7 22 12 NNW 1017,0 10 0,0
14.08.2019 22:00:00 24,0 16,0 28 15 NNW - 10 -
14.08.2019 21:00:00 24,0 16,0 28 15 NW - 10 -
14.08.2019 20:00:00 25,6 15,8 29 16 NNW 1016,0 10 -
14.08.2019 19:00:00 27,0 15,0 34 18 NNW - 10 -
14.08.2019 18:00:00 29,0 13,0 29 16 NW - 10 -
14.08.2019 17:00:00 29,3 13,4 35 19 NNW 1015,8 10 0,0
14.08.2019 16:00:00 30,0 13,0 39 21 NNW - 10 -
14.08.2019 15:00:00 30,0 10,0 42 23 NNW - 10 -
14.08.2019 14:00:00 29,4 10,9 37 20 NNW 1015,8 10 -
14.08.2019 13:00:00 29,0 10,0 46 25 NNW - 10 -
14.08.2019 12:00:00 29,0 12,0 41 22 NNW - 10 -
14.08.2019 11:00:00 27,6 14,3 34 18 NNW 1016,1 10 0,0
14.08.2019 10:00:00 26,0 16,0 31 17 NNW - 10 -
14.08.2019 09:00:00 24,0 16,0 22 12 NNW - 10 -
14.08.2019 08:00:00 21,7 15,4 16 9 NNW 1015,6 10 -
14.08.2019 07:00:00 20,0 15,0 15 8 N - 10 -
14.08.2019 06:00:00 20,0 15,0 8 4 NNE - 10 -
14.08.2019 05:00:00 19,3 15,2 5 3 N 1015,4 10 0,0
14.08.2019 04:00:00 20,0 16,0 8 4 N - 10 -
14.08.2019 03:00:00 20,0 16,0 8 4 NNW - 10 -
14.08.2019 02:00:00 20,9 15,9 9 5 NNW 1015,8 10 -
14.08.2019 01:00:00 22,0 15,0 16 9 NNW - 10 -
14.08.2019 00:00:00 23,0 16,0 15 8 WNW - 10 -
13.08.2019 23:00:00 23,5 14,9 22 12 NNW 1015,1 10 0,0
13.08.2019 22:00:00 24,0 14,0 22 12 NNW - 10 -
13.08.2019 21:00:00 25,0 14,0 26 14 NW - 10 -
13.08.2019 20:00:00 25,7 15,1 29 16 NNW 1013,6 10 -
13.08.2019 19:00:00 27,0 13,0 31 17 NNW - 10 -
13.08.2019 18:00:00 - - - - - - - -
13.08.2019 17:00:00 31,1 13,5 39 21 NNW 1013,0 10 0,0
13.08.2019 16:00:00 - - - - - - - -
13.08.2019 15:00:00 33,0 17,0 31 17 NNW - 10 -
13.08.2019 14:00:00 32,4 16,7 34 18 N 1012,6 10 -
13.08.2019 13:00:00 34,0 16,0 34 18 N - 10 -
13.08.2019 12:00:00 33,0 17,0 28 15 NNW - 10 -
13.08.2019 11:00:00 31,9 19,0 26 14 NNW 1013,0 10 0,0
13.08.2019 10:00:00 30,0 22,0 24 13 NNW - 10 -
13.08.2019 09:00:00 28,0 22,0 24 13 NW - 10 -
13.08.2019 08:00:00 26,3 23,0 15 8 NW 1011,8 10 -
13.08.2019 07:00:00 26,0 23,0 22 12 NNW - 10 -
13.08.2019 06:00:00 27,0 23,0 21 11 N - 10 -
13.08.2019 05:00:00 26,7 23,3 21 11 N 1012,1 10 0,0
13.08.2019 04:00:00 27,0 24,0 24 13 N - 10 -
13.08.2019 03:00:00 27,0 23,0 16 9 N - 10 -
13.08.2019 02:00:00 27,1 23,3 11 6 NNW 1012,7 10 -
13.08.2019 01:00:00 28,0 24,0 13 7 WNW - 10 -
13.08.2019 00:00:00 28,0 24,0 11 6 NW - 10 -
12.08.2019 23:00:00 27,9 22,9 13 7 NW 1012,2 10 0,0
12.08.2019 22:00:00 28,0 23,0 15 8 NNW - 10 -
12.08.2019 21:00:00 30,0 23,0 21 11 NNW - 10 -
12.08.2019 20:00:00 31,0 17,8 8 4 ENE 1011,6 10 -
12.08.2019 19:00:00 30,0 23,0 13 7 SE - 10 -
12.08.2019 18:00:00 30,0 24,0 16 9 SE - 10 -
12.08.2019 17:00:00 31,1 22,5 18 10 SE 1011,2 10 0,0
12.08.2019 16:00:00 32,0 23,0 18 10 SE - 10 -
12.08.2019 15:00:00 32,0 22,0 21 11 SSE - 10 -
12.08.2019 14:00:00 33,2 21,2 18 10 SE 1012,3 10 -
12.08.2019 13:00:00 33,0 19,0 18 10 SE - 10 -
12.08.2019 12:00:00 32,0 19,0 16 9 SSE - 10 -
12.08.2019 11:00:00 31,9 16,6 13 7 SSE 1012,8 10 0,0
12.08.2019 10:00:00 29,0 22,0 5 3 W - 10 -
12.08.2019 09:00:00 26,0 22,0 5 3 WNW - 10 -
12.08.2019 08:00:00 24,0 21,7 8 4 NW 1012,9 10 -
12.08.2019 07:00:00 22,0 20,0 5 3 N - 10 -
12.08.2019 06:00:00 23,0 21,0 13 7 NW - 10 -
12.08.2019 05:00:00 23,7 22,4 5 3 NW 1012,3 10 0,0
12.08.2019 04:00:00 24,0 22,0 5 3 NW - 10 -
12.08.2019 03:00:00 26,0 25,0 8 4 SE - 10 -

tt = temperature
td = dewpoint
ff = wind speed
dd = wind direction
ppp = reduced air pressure
vv = visibility
rr = precipitation

Next stations